Radiation Dose at Monitoring Post of Fukushima Daini Nuclear Power Station
Date,Time,MP-1(microSv/h),MP-2(microSv/h),MP-3(microSv/h),MP-4(microSv/h),MP-5(microSv/h),MP-6(microSv/h),MP-7(microSv/h),Wind Direction,Wind Velocity(m/s),Rain
2018/06/12,00:00,0.296,0.189,0.301,0.289,0.289,0.147,0.093,north,10.0,No
2018/06/12,00:10,0.297,0.189,0.300,0.288,0.291,0.148,0.093,north,10.9,No
2018/06/12,00:20,0.295,0.189,0.301,0.290,0.290,0.147,0.093,north,9.2,No
2018/06/12,00:30,0.297,0.189,0.301,0.288,0.290,0.149,0.093,-,CALM,No
2018/06/12,00:40,0.297,0.189,0.300,0.290,0.290,0.148,0.093,-,CALM,No
2018/06/12,00:50,0.299,0.189,0.301,0.289,0.287,0.148,0.093,-,CALM,No
2018/06/12,01:00,0.296,0.189,0.300,0.290,0.293,0.148,0.093,-,CALM,No
2018/06/12,01:10,0.299,0.189,0.302,0.290,0.290,0.149,0.092,-,CALM,No
2018/06/12,01:20,0.296,0.190,0.301,0.292,0.292,0.147,0.092,-,CALM,No
2018/06/12,01:30,0.297,0.190,0.303,0.289,0.288,0.149,0.093,northwest,3.4,No
2018/06/12,01:40,0.296,0.189,0.301,0.291,0.290,0.148,0.093,northwest,3.1,No
2018/06/12,01:50,0.298,0.189,0.303,0.292,0.289,0.149,0.092,north,10.0,No
2018/06/12,02:00,0.299,0.190,0.301,0.291,0.291,0.148,0.093,north,8.8,No
2018/06/12,02:10,0.298,0.190,0.301,0.291,0.290,0.148,0.093,-,CALM,No
2018/06/12,02:20,0.300,0.191,0.302,0.292,0.292,0.149,0.093,-,CALM,No
2018/06/12,02:30,0.298,0.189,0.301,0.292,0.288,0.148,0.093,north-northwest,8.4,No
2018/06/12,02:40,0.299,0.190,0.302,0.291,0.290,0.148,0.093,-,CALM,No
2018/06/12,02:50,0.299,0.188,0.301,0.291,0.291,0.148,0.093,-,CALM,No
2018/06/12,03:00,0.299,0.189,0.303,0.291,0.290,0.148,0.092,-,CALM,No
2018/06/12,03:10,0.297,0.189,0.301,0.292,0.290,0.150,0.093,-,CALM,No
2018/06/12,03:20,0.301,0.190,0.302,0.292,0.288,0.148,0.092,south-southwest,6.6,No
2018/06/12,03:30,0.298,0.190,0.303,0.292,0.292,0.148,0.093,-,CALM,No
2018/06/12,03:40,0.299,0.189,0.305,0.290,0.290,0.148,0.092,-,CALM,No
2018/06/12,03:50,0.298,0.190,0.302,0.292,0.291,0.149,0.092,-,CALM,No
2018/06/12,04:00,0.298,0.188,0.303,0.290,0.288,0.148,0.092,north-northwest,9.0,No
2018/06/12,04:10,0.298,0.191,0.303,0.292,0.291,0.149,0.092,north-northwest,7.4,No
2018/06/12,04:20,0.299,0.189,0.302,0.291,0.289,0.149,0.092,north-northwest,4.1,No
2018/06/12,04:30,0.301,0.189,0.304,0.293,0.292,0.150,0.093,north,7.4,No
2018/06/12,04:40,0.298,0.191,0.303,0.291,0.290,0.149,0.092,north,6.0,No
2018/06/12,04:50,0.301,0.190,0.304,0.294,0.292,0.149,0.093,north,4.4,No
2018/06/12,05:00,0.298,0.190,0.302,0.291,0.289,0.148,0.092,north,5.7,No
2018/06/12,05:10,0.301,0.189,0.304,0.293,0.291,0.149,0.092,north,8.1,No
2018/06/12,05:20,0.297,0.191,0.302,0.291,0.289,0.149,0.093,north,1.1,No
2018/06/12,05:30,0.300,0.189,0.304,0.293,0.292,0.149,0.092,north,3.6,No
2018/06/12,05:40,0.298,0.190,0.302,0.291,0.289,0.149,0.093,north-northeast,7.0,No
2018/06/12,05:50,0.299,0.188,0.303,0.293,0.290,0.149,0.092,north,6.2,No
2018/06/12,06:00,0.297,0.189,0.302,0.291,0.288,0.149,0.093,north,6.2,No
2018/06/12,06:10,0.301,0.189,0.304,0.293,0.291,0.149,0.092,-,CALM,No
2018/06/12,06:20,0.298,0.191,0.302,0.290,0.288,0.149,0.093,north-northeast,3.6,No
2018/06/12,06:30,0.300,0.189,0.304,0.293,0.292,0.149,0.092,-,CALM,No
2018/06/12,06:40,0.298,0.190,0.301,0.291,0.290,0.148,0.092,north-northeast,1.1,No
2018/06/12,06:50,0.300,0.189,0.305,0.293,0.290,0.149,0.092,north-northeast,6.9,No
2018/06/12,07:00,0.298,0.190,0.302,0.291,0.291,0.148,0.092,north-northeast,5.9,No
2018/06/12,07:10,0.299,0.190,0.305,0.294,0.289,0.149,0.092,north-northeast,4.5,No
2018/06/12,07:20,0.300,0.188,0.303,0.291,0.292,0.149,0.092,north-northeast,5.0,No
2018/06/12,07:30,0.299,0.190,0.301,0.290,0.289,0.149,0.092,north-northeast,4.7,No
2018/06/12,07:40,0.301,0.190,0.303,0.294,0.290,0.150,0.092,north-northeast,5.6,No
2018/06/12,07:50,0.297,0.188,0.302,0.292,0.293,0.149,0.092,northeast,4.9,No
2018/06/12,08:00,0.301,0.190,0.305,0.291,0.288,0.150,0.092,northeast,4.9,No
2018/06/12,08:10,0.300,0.191,0.302,0.294,0.291,0.149,0.092,northeast,5.6,No
2018/06/12,08:20,0.300,0.191,0.303,0.291,0.292,0.148,0.093,northeast,4.2,No
2018/06/12,08:30,0.300,0.190,0.304,0.294,0.289,0.150,0.092,northeast,4.8,No
2018/06/12,08:40,0.299,0.189,0.303,0.292,0.292,0.150,0.092,northeast,4.1,No
2018/06/12,08:50,0.301,0.191,0.305,0.293,0.293,0.148,0.092,northeast,3.7,No
2018/06/12,09:00,0.299,0.190,0.304,0.294,0.289,0.151,0.092,northeast,3.2,No
2018/06/12,09:10,0.301,0.190,0.304,0.292,0.292,0.149,0.093,northeast,3.4,No
2018/06/12,09:20,0.302,0.189,0.304,0.295,0.289,0.149,0.093,east-northeast,2.8,No
2018/06/12,09:30,0.300,0.190,0.302,0.294,0.293,0.150,0.092,east-northeast,2.6,No
2018/06/12,09:40,0.302,0.190,0.305,0.294,0.292,0.149,0.093,east,2.2,No
2018/06/12,09:50,0.301,0.191,-,0.294,0.290,0.149,0.092,east-northeast,1.8,No
2018/06/12,10:00,0.302,0.190,-,0.294,0.294,0.150,0.092,east,1.1,No
2018/06/12,10:10,0.300,0.189,-,0.296,0.291,0.149,0.093,east,1.0,No
2018/06/12,10:20,0.301,0.192,-,0.293,0.291,0.150,0.093,east-southeast,1.0,No
2018/06/12,10:30,0.301,0.191,-,0.295,0.293,0.150,0.093,south-southeast,0.9,No
2018/06/12,10:40,0.299,0.191,-,0.294,0.288,0.150,0.093,-,CALM,No
2018/06/12,10:50,0.302,0.191,-,0.292,0.292,0.151,0.093,south-southeast,1.3,No
2018/06/12,11:00,0.300,0.190,-,0.295,0.292,0.149,0.093,south-southeast,1.4,No
2018/06/12,11:10,0.301,0.191,-,0.293,0.289,0.150,0.092,south-southeast,0.9,No
2018/06/12,11:20,0.303,0.190,-,0.296,0.294,0.151,0.093,-,CALM,No
2018/06/12,11:30,0.301,0.190,-,0.296,0.292,0.151,0.093,south,1.2,No
2018/06/12,11:40,0.302,0.191,-,0.294,0.290,0.150,0.092,-,CALM,No
2018/06/12,11:50,0.301,0.190,-,0.297,0.294,0.150,0.094,south,0.6,No
2018/06/12,12:00,0.300,0.192,-,0.293,0.291,0.151,0.092,-,CALM,No
2018/06/12,12:10,0.304,0.191,-,0.295,0.289,0.151,0.093,-,CALM,No
2018/06/12,12:20,0.300,0.189,-,0.296,0.294,0.150,0.092,southeast,1.6,No
2018/06/12,12:30,0.300,0.192,-,0.292,0.292,0.151,0.093,southeast,1.7,No
2018/06/12,12:40,0.305,0.190,-,0.295,0.289,0.151,0.093,southeast,1.8,No
2018/06/12,12:50,0.300,0.190,-,0.295,0.294,0.151,0.094,east-southeast,1.6,No
2018/06/12,13:00,0.301,0.192,-,0.293,0.292,0.151,0.092,east-southeast,2.2,No
2018/06/12,13:10,0.303,0.190,-,0.296,0.291,0.151,0.093,southeast,1.6,No
2018/06/12,13:20,0.300,0.191,-,0.293,0.295,0.150,0.093,east-southeast,1.1,No
2018/06/12,13:30,0.303,0.191,-,0.297,0.292,0.152,0.092,east-southeast,1.3,No
2018/06/12,13:40,0.303,0.191,-,0.295,0.291,0.150,0.093,east-southeast,0.8,No
2018/06/12,13:50,0.303,0.192,-,0.296,0.294,0.152,0.093,east-northeast,1.7,No
2018/06/12,14:00,0.302,0.190,-,0.295,0.291,0.151,0.093,east-northeast,2.3,No
2018/06/12,14:10,0.303,0.192,-,0.293,0.295,0.150,0.094,northeast,2.4,No
2018/06/12,14:20,0.304,0.191,-,0.297,0.293,0.153,0.093,east-northeast,2.2,No
2018/06/12,14:30,0.301,0.192,-,0.295,0.293,0.151,0.093,east-northeast,2.5,No
2018/06/12,14:40,0.305,0.191,-,0.295,0.294,0.151,0.092,east-northeast,2.9,No
2018/06/12,14:50,0.302,0.191,-,0.295,0.292,0.151,0.093,northeast,2.0,No
2018/06/12,15:00,0.303,0.192,-,0.295,0.295,0.151,0.093,northeast,3.3,Yes
2018/06/12,15:10,0.303,0.192,-,0.294,0.292,0.152,0.094,north,2.7,Yes
2018/06/12,15:20,0.305,0.193,0.307,0.299,0.295,0.153,0.095,west-southwest,1.3,Yes
2018/06/12,15:30,0.305,0.196,0.310,0.297,0.294,0.156,0.097,north,2.8,Yes
2018/06/12,15:40,0.307,0.195,0.310,0.299,0.297,0.156,0.098,north-northeast,4.3,Yes
2018/06/12,15:50,0.307,0.198,0.311,0.299,0.298,0.157,0.100,north-northeast,2.8,Yes
2018/06/12,16:00,0.308,0.198,0.311,0.300,0.300,0.159,0.100,east-northeast,2.5,Yes
2018/06/12,16:10,0.307,0.198,0.309,0.299,0.296,0.159,0.101,northeast,1.6,Yes
2018/06/12,16:20,0.309,0.197,0.310,0.301,0.297,0.159,0.099,east-southeast,1.0,No
2018/06/12,16:30,0.305,0.197,0.308,0.297,0.296,0.157,0.099,east-southeast,0.8,Yes
2018/06/12,16:40,0.307,0.195,0.309,0.298,0.297,0.156,0.098,northeast,1.9,No
2018/06/12,16:50,0.303,0.196,0.307,0.296,0.294,0.155,0.097,east-northeast,0.9,No
2018/06/12,17:00,0.304,0.195,0.306,0.298,0.292,0.154,0.096,north-northeast,1.5,No
2018/06/12,17:10,0.302,0.194,0.305,0.295,0.293,0.153,0.095,northeast,1.4,No
2018/06/12,17:20,0.303,0.192,0.306,0.295,0.293,0.152,0.095,northeast,1.5,No
2018/06/12,17:30,0.301,0.193,0.305,0.294,0.293,0.152,0.095,east-northeast,2.0,No
2018/06/12,17:40,0.302,0.192,0.305,0.293,0.291,0.151,0.094,southeast,0.9,No
2018/06/12,17:50,0.301,0.191,0.303,0.294,0.292,0.151,0.094,east-northeast,1.4,No
2018/06/12,18:00,0.300,0.190,0.305,0.294,0.289,0.152,0.094,north-northeast,1.3,No
2018/06/12,18:10,0.300,0.190,0.304,0.293,0.292,0.151,0.093,north,1.5,No
2018/06/12,18:20,0.301,0.191,0.304,0.294,0.290,0.152,0.092,north-northeast,1.7,No
2018/06/12,18:30,0.301,0.191,0.303,0.294,0.292,0.150,0.094,east-northeast,1.5,No
2018/06/12,18:40,0.300,0.190,0.305,0.292,0.290,0.151,0.093,north-northeast,1.3,No
2018/06/12,18:50,0.301,0.191,0.303,0.294,0.293,0.150,0.093,north-northeast,1.5,No
2018/06/12,19:00,0.299,0.190,0.304,0.293,0.290,0.151,0.092,north-northeast,1.4,No
2018/06/12,19:10,0.300,0.190,0.304,0.294,0.292,0.149,0.093,northeast,1.6,No
2018/06/12,19:20,0.300,0.190,0.305,0.292,0.289,0.151,0.093,north,2.3,No
2018/06/12,19:30,0.301,0.191,0.303,0.293,0.291,0.150,0.093,north-northeast,4.1,No
2018/06/12,19:40,0.300,0.191,0.304,0.293,0.291,0.151,0.093,north-northeast,3.2,No
2018/06/12,19:50,0.301,0.190,0.303,0.293,0.290,0.151,0.093,north-northeast,1.1,No
2018/06/12,20:00,0.299,0.190,0.304,0.291,0.291,0.150,0.092,north-northeast,2.2,Yes
2018/06/12,20:10,0.301,0.191,0.303,0.293,0.293,0.150,0.093,north-northeast,3.1,No
2018/06/12,20:20,0.301,0.191,0.303,0.292,0.291,0.150,0.092,north,2.6,No
2018/06/12,20:30,0.301,0.191,0.304,0.294,0.292,0.151,0.092,north,1.8,No
2018/06/12,20:40,0.300,0.192,0.304,0.292,0.291,0.150,0.092,north-northwest,2.5,No
2018/06/12,20:50,0.301,0.189,0.303,0.294,0.289,0.151,0.093,north-northwest,2.3,No
2018/06/12,21:00,0.299,0.191,0.305,0.293,0.291,0.150,0.092,north,2.1,No
2018/06/12,21:10,0.302,0.190,0.303,0.295,0.290,0.151,0.092,north,1.5,No
2018/06/12,21:20,0.299,0.191,0.305,0.291,0.292,0.151,0.092,north-northeast,3.5,No
2018/06/12,21:30,0.302,0.191,0.302,0.293,0.290,0.150,0.092,north-northeast,1.8,No
2018/06/12,21:40,0.301,0.191,0.304,0.293,0.291,0.150,0.093,north,1.5,No
2018/06/12,21:50,0.300,0.191,0.302,0.294,0.291,0.151,0.093,north-northeast,3.1,No
2018/06/12,22:00,0.300,0.189,0.305,0.292,0.292,0.150,0.092,north-northeast,1.4,No
2018/06/12,22:10,0.301,0.191,0.302,0.294,0.290,0.150,0.092,north-northeast,1.8,No
2018/06/12,22:20,0.300,0.190,0.305,0.292,0.292,0.150,0.093,north-northeast,1.8,No
2018/06/12,22:30,0.301,0.190,0.302,0.292,0.290,0.151,0.092,north,1.1,No
2018/06/12,22:40,0.298,0.190,0.306,0.294,0.291,0.150,0.093,northeast,1.3,No
2018/06/12,22:50,0.301,0.191,0.304,0.294,0.290,0.150,0.092,north-northeast,0.9,No
2018/06/12,23:00,0.300,0.191,0.306,0.292,0.293,0.151,0.092,northeast,0.9,No
2018/06/12,23:10,0.303,0.192,0.303,0.295,0.291,0.151,0.092,north,0.9,No
2018/06/12,23:20,0.299,0.189,0.305,0.292,0.293,0.150,0.093,-,CALM,No
2018/06/12,23:30,0.302,0.191,0.303,0.295,0.289,0.151,0.092,north,1.6,No
2018/06/12,23:40,0.299,0.190,0.306,0.293,0.292,0.150,0.093,north-northeast,1.1,No
2018/06/12,23:50,0.304,0.191,0.304,0.293,0.290,0.151,0.092,northeast,1.3,No
